FW5198 Weather Reports


Display with metric or nautical units.
time (UTC)temp
F
wind
direction
speed
MPH
gust
MPH
rain 1hr
in
rain 24hr
in
rain mn
in
humidity
%
barometer
mb
20260905134545 79 0 0.0 0.0 0.00 0.00 0.00 89 1015.7
20260905133052 78 0 0.0 0.0 0.00 0.00 0.00 91 1015.9
20260905131549 77 0 0.0 0.0 0.00 0.00 0.00 91 1015.9
20260905130056 77 0 0.0 0.0 0.00 0.00 0.00 93 1015.8
20260905124555 76 0 0.0 0.0 0.00 0.00 0.00 94 1015.8
20260905123052 75 0 0.0 0.0 0.00 0.00 0.00 96 1015.8
20260905121547 74 0 0.0 0.0 0.00 0.00 0.00 96 1015.6
20260905120055 74 0 0.0 0.0 0.00 0.00 0.00 96 1015.5
20260905114552 74 0 0.0 0.0 0.00 0.00 0.00 96 1015.4
20260905113048 73 0 0.0 0.0 0.00 0.00 0.00 96 1015.1
20260905111558 73 0 0.0 0.0 0.00 0.00 0.00 96 1015.0
20260905110044 73 0 0.0 0.0 0.00 0.00 0.00 96 1014.7
20260905104550 74 0 0.0 0.0 0.00 0.00 0.00 96 1014.5
20260905103052 74 0 0.0 0.0 0.00 0.00 0.00 96 1014.4
20260905101547 74 0 0.0 0.0 0.00 0.00 0.00 96 1014.4
20260905100047 74 0 0.0 0.0 0.00 0.00 0.00 95 1014.4
20260905094553 74 0 0.0 0.0 0.00 0.00 0.00 95 1014.4
20260905093047 74 0 0.0 0.0 0.00 0.00 0.00 96 1014.4
20260905091614 74 0 0.0 0.0 0.00 0.00 0.00 95 1014.5
20260905090106 74 0 0.0 0.0 0.00 0.00 0.00 95 1014.4
20260905084550 75 0 0.0 0.0 0.00 0.00 0.00 95 1014.4
20260905083046 75 0 0.0 0.0 0.00 0.00 0.00 95 1014.3
20260905081553 75 0 0.0 0.0 0.00 0.00 0.00 94 1014.4
20260905080055 75 0 0.0 0.0 0.00 0.00 0.00 94 1014.5
20260905074547 75 0 0.0 0.0 0.00 0.00 0.00 94 1014.5
20260905073053 75 0 0.0 0.0 0.00 0.00 0.00 94 1014.5
20260905071546 75 0 0.0 0.0 0.00 0.00 0.00 94 1014.5
20260905070059 75 0 0.0 0.0 0.00 0.00 0.00 94 1014.4
20260905064548 75 0 0.0 0.0 0.00 0.00 0.00 94 1014.4
20260905063059 76 0 0.0 0.0 0.00 0.00 0.00 94 1014.4
20260905061619 76 0 0.0 0.0 0.00 0.00 0.00 93 1014.5
20260905060107 76 0 0.0 1.0 0.00 0.00 0.00 93 1014.6
20260905054549 76 0 0.0 1.0 0.00 0.00 0.00 92 1014.7
20260905053052 76 0 0.0 1.0 0.00 0.00 0.00 93 1014.8
20260905051553 77 0 0.0 1.0 0.00 0.00 0.00 92 1014.8
20260905050047 77 0 0.0 1.0 0.00 0.00 0.00 92 1015.0
20260905044550 77 0 0.0 0.0 0.00 0.00 0.00 91 1015.1
20260905043048 78 0 0.0 0.0 0.00 0.00 0.00 90 1015.0
20260905041550 78 0 0.0 0.0 0.00 0.00 0.00 90 1015.2
20260905040049 78 0 0.0 0.0 0.00 0.00 0.00 90 1015.2
20260905034554 79 0 0.0 0.0 0.00 0.00 0.00 89 1015.3
20260905033046 79 0 0.0 1.0 0.00 0.00 0.00 88 1015.3
20260905031554 80 0 0.0 1.0 0.00 0.00 0.00 88 1015.5
20260905030047 80 39 0.0 1.0 0.00 0.00 0.00 86 1015.5
20260905024548 81 0 0.0 0.0 0.00 0.00 0.00 86 1015.7
20260905023046 81 0 0.0 1.0 0.00 0.00 0.00 86 1015.6
20260905021556 81 0 0.0 2.0 0.00 0.00 0.00 85 1015.6
20260905020048 81 0 0.0 1.0 0.00 0.00 0.00 86 1015.6
20260905014547 81 0 0.0 1.0 0.00 0.00 0.00 85 1015.4
20260905013050 82 0 0.0 1.0 0.00 0.00 0.00 83 1015.3
20260905011549 83 47 1.0 2.0 0.00 0.00 0.00 82 1015.3
20260905010046 84 0 0.0 1.0 0.00 0.00 0.00 80 1015.2
20260905004549 85 49 0.0 1.0 0.00 0.00 0.00 79 1015.0
20260905003052 87 0 0.0 1.0 0.00 0.00 0.00 74 1014.9
20260905001555 88 0 0.0 2.0 0.00 0.00 0.00 71 1014.7
20260904234547 92 49 1.0 9.0 0.00 0.00 0.00 61 1014.9
20260904233054 93 0 0.0 1.0 0.00 0.00 0.00 65 1014.6
20260904231557 95 0 0.0 1.0 0.00 0.00 0.00 57 1014.4
20260904230049 97 0 0.0 1.0 0.00 0.00 0.00 55 1014.3
20260904224554 97 110 1.0 3.0 0.00 0.00 0.00 53 1014.3
20260904223101 97 0 0.0 3.0 0.00 0.00 0.00 55 1014.3
20260904221558 96 104 0.0 2.0 0.00 0.00 0.00 55 1014.2
20260904220053 97 101 3.0 5.0 0.00 0.00 0.00 55 1014.3
20260904214548 97 75 1.0 2.0 0.00 0.00 0.00 53 1014.5
20260904213054 97 105 0.0 4.0 0.00 0.00 0.00 54 1014.5
20260904211549 98 110 0.0 4.0 0.00 0.00 0.00 53 1014.5
20260904210059 98 0 1.0 4.0 0.00 0.00 0.00 52 1014.5
20260904204558 97 127 2.0 7.0 0.00 0.00 0.00 54 1014.9
20260904203100 97 37 2.0 5.0 0.00 0.00 0.00 53 1015.1
20260904201547 97 73 2.0 5.0 0.00 0.00 0.00 54 1015.3
20260904200046 97 32 2.0 6.0 0.00 0.00 0.00 55 1015.5
20260904194553 96 53 2.0 7.0 0.00 0.00 0.00 56 1015.6
20260904193103 95 0 0.0 2.0 0.00 0.00 0.00 58 1015.9
20260904191553 96 77 2.0 5.0 0.00 0.00 0.00 57 1016.1
20260904190054 97 32 0.0 3.0 0.00 0.00 0.00 54 1016.4
20260904184552 95 0 0.0 5.0 0.00 0.00 0.00 57 1016.5
20260904183050 95 0 0.0 1.0 0.00 0.00 0.00 58 1016.6
20260904181546 95 0 0.0 1.0 0.00 0.00 0.00 57 1016.9
20260904174553 97 68 2.0 5.0 0.00 0.00 0.00 53 1017.2
20260904173055 95 91 1.0 6.0 0.00 0.00 0.00 57 1017.3
20260904171546 95 34 3.0 7.0 0.00 0.00 0.00 56 1017.4
20260904170047 95 63 1.0 6.0 0.00 0.00 0.00 56 1017.4
20260904164552 95 51 2.0 7.0 0.00 0.00 0.00 57 1017.5
20260904163051 94 25 4.0 8.0 0.00 0.00 0.00 58 1017.8
20260904161557 96 86 1.0 5.0 0.00 0.00 0.00 57 1017.9
20260904160100 93 0 2.0 5.0 0.00 0.00 0.00 59 1017.8
20260904154552 93 42 2.0 5.0 0.00 0.00 0.00 60 1017.9
20260904153047 94 33 0.0 4.0 0.00 0.00 0.00 60 1017.8
20260904151549 92 0 0.0 5.0 0.00 0.00 0.00 65 1017.8
20260904150054 91 39 0.0 4.0 0.00 0.00 0.00 66 1017.8
20260904144605 90 60 0.0 3.0 0.00 0.00 0.00 71 1017.6
20260904143056 88 47 2.0 4.0 0.00 0.00 0.00 73 1017.6
20260904141557 87 30 0.0 2.0 0.00 0.00 0.00 76 1017.5
20260904140049 85 42 1.0 3.0 0.00 0.00 0.00 80 1017.6